Time,TemperatureF,DewpointF,PressureIn,WindDirection,WindDirectionDegrees,WindSpeedMPH,WindSpeedGustMPH,Humidity,HourlyPrecipIn,Conditions,Clouds,dailyrainin,SoftwareType,DateUTC
2013-05-15 00:12:00,57.0,56.0,-100.00,NW,307,0.0,0.0,98,0.00,,,0.00,,2013-05-15 05:12:00,
2013-05-15 00:22:00,57.0,56.0,-100.00,NW,307,0.0,0.0,98,0.00,,,0.00,,2013-05-15 05:22:00,
2013-05-15 00:32:00,57.0,56.0,-100.00,NW,307,0.0,0.0,98,0.00,,,0.00,,2013-05-15 05:32:00,
2013-05-15 00:42:00,57.0,56.0,-100.00,NW,307,0.0,0.0,98,0.00,,,0.00,,2013-05-15 05:42:00,
2013-05-15 01:11:00,58.0,57.0,-100.00,NW,321,0.0,0.0,98,0.00,,,0.00,,2013-05-15 06:11:00,
2013-05-15 01:21:00,58.0,57.0,-100.00,NW,321,0.0,0.0,98,0.00,,,0.00,,2013-05-15 06:21:00,
2013-05-15 01:32:00,58.0,57.0,-100.00,NW,321,0.0,0.0,98,0.00,,,0.00,,2013-05-15 06:32:00,
2013-05-15 01:42:00,58.0,57.0,-100.00,NW,321,0.0,0.0,98,0.00,,,0.00,,2013-05-15 06:42:00,
2013-05-15 02:11:00,55.0,54.0,-100.00,NNE,17,0.0,0.0,98,0.00,,,0.00,,2013-05-15 07:11:00,
2013-05-15 02:22:00,55.0,54.0,-100.00,NNE,17,0.0,0.0,98,0.00,,,0.00,,2013-05-15 07:22:00,
2013-05-15 02:32:00,55.0,54.0,-100.00,NNE,17,0.0,0.0,98,0.00,,,0.00,,2013-05-15 07:32:00,
2013-05-15 02:41:00,55.0,54.0,-100.00,NNE,17,0.0,0.0,98,0.00,,,0.00,,2013-05-15 07:41:00,
2013-05-15 03:12:00,56.0,55.0,-100.00,NNW,343,0.0,0.0,98,0.00,,,-99.99,,2013-05-15 08:12:00,
2013-05-15 03:21:00,56.0,55.0,-100.00,NNW,343,0.0,0.0,98,0.00,,,-99.99,,2013-05-15 08:21:00,
2013-05-15 03:32:00,56.0,55.0,-100.00,NNW,343,0.0,0.0,98,0.00,,,-99.99,,2013-05-15 08:32:00,
2013-05-15 03:42:00,56.0,55.0,-100.00,NNW,343,0.0,0.0,98,0.00,,,-99.99,,2013-05-15 08:42:00,
2013-05-15 04:11:00,55.0,55.0,-100.00,NE,42,0.0,0.0,99,0.00,,,0.00,,2013-05-15 09:11:00,
2013-05-15 04:21:00,55.0,55.0,-100.00,NE,42,0.0,0.0,99,0.00,,,0.00,,2013-05-15 09:21:00,
2013-05-15 04:33:00,55.0,55.0,-100.00,NE,42,0.0,0.0,99,0.00,,,0.00,,2013-05-15 09:33:00,
2013-05-15 04:42:00,55.0,55.0,-100.00,NE,42,0.0,0.0,99,0.00,,,0.00,,2013-05-15 09:42:00,
2013-05-15 05:12:00,53.0,53.0,-100.00,NNE,13,0.0,0.0,99,0.00,,,0.00,,2013-05-15 10:12:00,
2013-05-15 05:22:00,53.0,53.0,-100.00,NNE,13,0.0,0.0,99,0.00,,,0.00,,2013-05-15 10:22:00,
2013-05-15 05:32:00,53.0,53.0,-100.00,NNE,13,0.0,0.0,99,0.00,,,0.00,,2013-05-15 10:32:00,
2013-05-15 05:42:00,53.0,53.0,-100.00,NNE,13,0.0,0.0,99,0.00,,,0.00,,2013-05-15 10:42:00,
2013-05-15 05:46:00,54.0,54.0,-100.00,North,10,0.0,0.0,99,0.00,,,0.00,,2013-05-15 10:46:00,
2013-05-15 06:18:00,54.0,54.0,-100.00,North,10,0.0,0.0,99,0.00,,,0.00,,2013-05-15 11:18:00,
2013-05-15 06:27:00,54.0,54.0,-100.00,North,10,0.0,0.0,99,0.00,,,0.00,,2013-05-15 11:27:00,
2013-05-15 06:36:00,54.0,54.0,-100.00,North,10,0.0,0.0,99,0.00,,,0.00,,2013-05-15 11:36:00,
2013-05-15 06:46:00,53.0,53.0,-100.00,NNE,29,0.0,0.0,99,0.00,,,0.00,,2013-05-15 11:46:00,
2013-05-15 07:36:00,53.0,53.0,-100.00,NNE,29,0.0,0.0,99,0.00,,,0.00,,2013-05-15 12:36:00,
2013-05-15 07:46:00,67.0,67.0,-100.00,East,90,0.0,0.0,99,0.00,,,0.00,,2013-05-15 12:46:00,
2013-05-15 08:17:00,67.0,67.0,-100.00,East,90,0.0,0.0,99,0.00,,,0.00,,2013-05-15 13:17:00,
2013-05-15 08:26:00,67.0,67.0,-100.00,East,90,0.0,0.0,99,0.00,,,0.00,,2013-05-15 13:26:00,
2013-05-15 08:36:00,67.0,67.0,-100.00,East,90,0.0,0.0,99,0.00,,,0.00,,2013-05-15 13:36:00,
2013-05-15 09:14:00,76.0,69.0,-100.00,North,353,2.0,4.0,78,0.00,,,0.00,,2013-05-15 14:14:00,
2013-05-15 09:26:00,76.0,69.0,-100.00,North,353,2.0,4.0,78,0.00,,,0.00,,2013-05-15 14:26:00,
2013-05-15 09:46:00,79.0,63.0,-100.00,NW,315,3.0,6.0,58,0.00,,,0.00,,2013-05-15 14:46:00,
2013-05-15 10:16:00,79.0,63.0,-100.00,NW,315,3.0,6.0,58,0.00,,,0.00,,2013-05-15 15:16:00,
2013-05-15 10:27:00,79.0,63.0,-100.00,NW,315,3.0,6.0,58,0.00,,,0.00,,2013-05-15 15:27:00,
2013-05-15 10:36:00,79.0,63.0,-100.00,NW,315,3.0,6.0,58,0.00,,,0.00,,2013-05-15 15:36:00,
2013-05-15 10:46:00,83.0,59.0,-100.00,NNE,24,3.0,6.0,44,0.00,,,0.00,,2013-05-15 15:46:00,
2013-05-15 11:22:00,83.0,59.0,-100.00,NNE,24,3.0,6.0,44,0.00,,,0.00,,2013-05-15 16:22:00,
2013-05-15 11:27:00,83.0,59.0,-100.00,NNE,24,3.0,6.0,44,0.00,,,0.00,,2013-05-15 16:27:00,
2013-05-15 11:36:00,83.0,59.0,-100.00,NNE,24,3.0,6.0,44,0.00,,,0.00,,2013-05-15 16:36:00,
2013-05-15 12:46:00,84.0,58.0,-100.00,SW,232,4.0,12.0,41,-99.99,,,0.00,,2013-05-15 17:46:00,
2013-05-15 13:15:00,84.0,58.0,-100.00,SW,232,4.0,12.0,41,-99.99,,,0.00,,2013-05-15 18:15:00,
2013-05-15 13:26:00,84.0,58.0,-100.00,SW,232,4.0,12.0,41,-99.99,,,0.00,,2013-05-15 18:26:00,
2013-05-15 14:15:00,85.0,55.0,-100.00,South,176,4.0,10.0,36,0.00,,,0.00,,2013-05-15 19:15:00,
2013-05-15 14:29:00,85.0,55.0,-100.00,South,176,4.0,10.0,36,0.00,,,0.00,,2013-05-15 19:29:00,
2013-05-15 14:37:00,85.0,55.0,-100.00,South,176,4.0,10.0,36,0.00,,,0.00,,2013-05-15 19:37:00,
2013-05-15 14:44:00,85.0,55.0,-100.00,South,176,4.0,10.0,36,0.00,,,0.00,,2013-05-15 19:44:00,
2013-05-15 14:46:00,86.0,56.0,-100.00,South,174,3.0,11.0,36,0.00,,,0.00,,2013-05-15 19:46:00,
2013-05-15 15:28:00,86.0,56.0,-100.00,South,174,3.0,11.0,36,0.00,,,0.00,,2013-05-15 20:28:00,
2013-05-15 15:37:00,86.0,56.0,-100.00,South,174,3.0,11.0,36,0.00,,,0.00,,2013-05-15 20:37:00,
2013-05-15 15:46:00,85.0,52.0,-100.00,SSW,210,4.0,12.0,32,0.00,,,0.00,,2013-05-15 20:46:00,
2013-05-15 16:19:00,85.0,52.0,-100.00,SSW,210,4.0,12.0,32,0.00,,,0.00,,2013-05-15 21:19:00,
2013-05-15 16:27:00,85.0,52.0,-100.00,SSW,210,4.0,12.0,32,0.00,,,0.00,,2013-05-15 21:27:00,
2013-05-15 16:46:00,83.0,52.0,-100.00,SW,228,4.0,9.0,35,0.00,,,0.00,,2013-05-15 21:46:00,
2013-05-15 17:28:00,83.0,52.0,-100.00,SW,228,4.0,9.0,35,0.00,,,0.00,,2013-05-15 22:28:00,
2013-05-15 17:39:00,83.0,52.0,-100.00,SW,228,4.0,9.0,35,0.00,,,0.00,,2013-05-15 22:39:00,
2013-05-15 17:46:00,79.0,51.0,-100.00,SW,223,3.0,10.0,38,0.00,,,0.00,,2013-05-15 22:46:00,
2013-05-15 18:15:00,79.0,51.0,-100.00,SW,223,3.0,10.0,38,0.00,,,0.00,,2013-05-15 23:15:00,
2013-05-15 18:27:00,79.0,51.0,-100.00,SW,223,3.0,10.0,38,0.00,,,0.00,,2013-05-15 23:27:00,
2013-05-15 18:38:00,79.0,51.0,-100.00,SW,223,3.0,10.0,38,0.00,,,0.00,,2013-05-15 23:38:00,
2013-05-15 18:46:00,75.0,50.0,-100.00,SSW,197,2.0,7.0,42,0.00,,,0.00,,2013-05-15 23:46:00,
2013-05-15 19:17:00,75.0,50.0,-100.00,SSW,197,2.0,7.0,42,0.00,,,0.00,,2013-05-16 00:17:00,
2013-05-15 19:26:00,75.0,50.0,-100.00,SSW,197,2.0,7.0,42,0.00,,,0.00,,2013-05-16 00:26:00,
2013-05-15 19:35:00,75.0,50.0,-100.00,SSW,197,2.0,7.0,42,0.00,,,0.00,,2013-05-16 00:35:00,
2013-05-15 19:46:00,69.0,52.0,-100.00,West,265,1.0,6.0,54,0.00,,,-99.99,,2013-05-16 00:46:00,
2013-05-15 20:28:00,69.0,52.0,-100.00,West,265,1.0,6.0,54,0.00,,,-99.99,,2013-05-16 01:28:00,
2013-05-15 20:36:00,69.0,52.0,-100.00,West,265,1.0,6.0,54,0.00,,,-99.99,,2013-05-16 01:36:00,
2013-05-15 20:46:00,64.0,57.0,-100.00,NW,307,1.0,2.0,79,0.00,,,0.00,,2013-05-16 01:46:00,
2013-05-15 21:16:00,64.0,57.0,-100.00,NW,307,1.0,2.0,79,0.00,,,0.00,,2013-05-16 02:16:00,
2013-05-15 21:27:00,64.0,57.0,-100.00,NW,307,1.0,2.0,79,0.00,,,0.00,,2013-05-16 02:27:00,
2013-05-15 21:37:00,64.0,57.0,-100.00,NW,307,1.0,2.0,79,0.00,,,0.00,,2013-05-16 02:37:00,
2013-05-15 22:16:00,63.0,58.0,-100.00,WNW,282,0.0,2.0,85,0.00,,,0.00,,2013-05-16 03:16:00,
2013-05-15 22:25:00,63.0,58.0,-100.00,WNW,282,0.0,2.0,85,0.00,,,0.00,,2013-05-16 03:25:00,
2013-05-15 22:36:00,63.0,58.0,-100.00,WNW,282,0.0,2.0,85,0.00,,,0.00,,2013-05-16 03:36:00,
2013-05-15 22:45:00,63.0,58.0,-100.00,WNW,282,0.0,2.0,85,0.00,,,0.00,,2013-05-16 03:45:00,
2013-05-15 23:12:00,62.0,60.0,-100.00,ESE,115,0.0,0.0,93,0.00,,,0.00,,2013-05-16 04:12:00,
2013-05-15 23:23:00,62.0,60.0,-100.00,ESE,115,0.0,0.0,93,0.00,,,0.00,,2013-05-16 04:23:00,
2013-05-15 23:33:00,62.0,60.0,-100.00,ESE,115,0.0,0.0,93,0.00,,,0.00,,2013-05-16 04:33:00,
2013-05-15 23:42:00,62.0,60.0,-100.00,ESE,115,0.0,0.0,93,0.00,,,0.00,,2013-05-16 04:42:00,